Regional Weather Roundup
Issued by NWS Little Rock, AR

Home | Current Version | Previous Version | Graphics & Text | Print | Product List | Glossary On
Versions: 1 2 3 4 5 6 7 8 9 10 11 12 13 14 15 16 17 18 19 20 21 22 23 24 25 26 27 28 29 30 31 32 33 34 35 36 37 38 39 40 41 42 43 44 45 46 47 48 49 50
000
ASUS44 KLZK 200005
RWRLZK

WEATHER ROUNDUP FOR ARKANSAS
NATIONAL WEATHER SERVICE LITTLE ROCK AR
700 PM CDT SUN OCT 19 2014

NOTE: "FAIR" INDICATES FEW OR NO CLOUDS BELOW 12,000 FEET WITH NO
SIGNIFICANT WEATHER AND/OR OBSTRUCTIONS TO VISIBILITY.

ARZ001-003-010-029-200100-
NORTHWEST ARKANSAS

CITY           SKY/WX    TMP DP  RH WIND       PRES   REMARKS
FAYETTEVILLE   CLEAR     56  50  80 S8        30.09S
6HR MIN TEMP:  56; 6HR MAX TEMP:  67;

FORT SMITH     CLEAR     65  51  60 E3        30.07F
6HR MIN TEMP:  64; 6HR MAX TEMP:  72;

HARRISON       CLEAR     57  49  74 SE5       30.10R
6HR MIN TEMP:  57; 6HR MAX TEMP:  67;

BENTONVILLE    CLEAR     61  48  63 S3        30.08S
6HR MIN TEMP:  61; 6HR MAX TEMP:  68;

ROGERS         CLEAR     61  50  67 S3        30.09S
6HR MIN TEMP:  60; 6HR MAX TEMP:  68;

SILOAM SPGS    CLEAR     59  46  63 S6        30.10R
6HR MIN TEMP:  59; 6HR MAX TEMP:  68;

HIGHFILL       CLEAR     60  50  69 S5        30.08S
6HR MIN TEMP:  60; 6HR MAX TEMP:  67;

SPRINGDALE     CLEAR     63  50  63 S5        30.10S
$$

ARZ004-005-016-200100-
NORTH CENTRAL ARKANSAS

CITY           SKY/WX    TMP DP  RH WIND       PRES   REMARKS
BATESVILLE     MOCLDY    63  45  51 SE3       30.11R
6HR MIN TEMP:  63; 6HR MAX TEMP:  70;

FLIPPIN        PTCLDY    59  45  58 CALM      30.10R
6HR MIN TEMP:  59; 6HR MAX TEMP:  66;

MTN HOME       PTCLDY    56  49  77 SE5       30.09R
6HR MIN TEMP:  56; 6HR MAX TEMP:  66;

$$

ARZ040-041-200100-
WEST CENTRAL ARKANSAS

CITY           SKY/WX    TMP DP  RH WIND       PRES   REMARKS
MENA           CLEAR     61  54  77 CALM      30.09S
MOUNT IDA      CLEAR     58  53  84 CALM      30.08S
6HR MIN TEMP:  58; 6HR MAX TEMP:  71;

$$

ARZ009-017-025-026-028-200100-
NORTHEAST ARKANSAS

CITY           SKY/WX    TMP DP  RH WIND       PRES   REMARKS
CORNING        FAIR      57  52  82 SW3       30.12R HAZE
JONESBORO      PTCLDY    56  50  80 CALM      30.11R
6HR MIN TEMP:  56; 6HR MAX TEMP:  66;

NEWPORT        PTCLDY    62  53  72 CALM      30.12S HAZE
6HR MIN TEMP:  62; 6HR MAX TEMP:  67; 6HR PCP: TRACE;

WALNUT RIDGE   CLOUDY    59  39  47 N3        30.11S
6HR MIN TEMP:  59; 6HR MAX TEMP:  66;

BLYTHEVILLE    PTCLDY    58  47  66 CALM      30.11S
6HR MIN TEMP:  58; 6HR MAX TEMP:  69;

$$

ARZ022-023-033-042-044-200100-
CENTRAL ARKANSAS

CITY           SKY/WX    TMP DP  RH WIND       PRES   REMARKS
LITTLE ROCK    PTCLDY    63  47  55 CALM      30.11R
6HR MIN TEMP:  62; 6HR MAX TEMP:  71;

N LITTLE ROCK  PTCLDY    58  50  77 SE2       30.11R
6HR MIN TEMP:  57; 6HR MAX TEMP:  69;

JACKSONVILLE   CLEAR     58  51  79 CALM      30.11R HAZE
6HR MIN TEMP:  58; 6HR MAX TEMP:  70;

SEARCY         PTCLDY    57  51  80 CALM      30.12S
6HR MIN TEMP:  57; 6HR MAX TEMP:  68;

HOT SPRINGS    CLEAR     61  49  64 SE3       30.10S
6HR MIN TEMP:  60; 6HR MAX TEMP:  70;

RUSSELLVILLE   CLEAR     56  52  86 CALM      30.10R
6HR MIN TEMP:  56; 6HR MAX TEMP:  70;

$$

ARZ036-200100-
EAST ARKANSAS

CITY           SKY/WX    TMP DP  RH WIND       PRES   REMARKS
WEST MEMPHIS   CLEAR     56  51  84 CALM      30.10S
6HR MIN TEMP:  56; 6HR MAX TEMP:  69;

$$

ARZ050-053-066-070-073-200100-
SOUTHWEST ARKANSAS

CITY           SKY/WX    TMP DP  RH WIND       PRES   REMARKS
ARKADELPHIA    FAIR      60  58  93 CALM      30.11R
6HR MIN TEMP:  60; 6HR MAX TEMP:  70;

CAMDEN         CLEAR     59  52  77 CALM      30.10S
TEXARKANA      CLEAR     59  51  75 E3        30.09R
6HR MIN TEMP:  59; 6HR MAX TEMP:  71;

EL DORADO      CLEAR     58  53  84 CALM      30.10S
6HR MIN TEMP:  58; 6HR MAX TEMP:  71;

DE QUEEN       CLEAR     61  55  81 CALM      30.08R
6HR MIN TEMP:  61; 6HR MAX TEMP:  71;

$$

ARZ056-057-069-200100-
SOUTHEAST ARKANSAS

CITY           SKY/WX    TMP DP  RH WIND       PRES   REMARKS
PINE BLUFF     CLEAR     60  49  66 CALM      30.10S
6HR MIN TEMP:  60; 6HR MAX TEMP:  69;

STUTTGART      PTCLDY    63  45  51 NE5       30.11S
6HR MIN TEMP:  63; 6HR MAX TEMP:  68;

MONTICELLO     CLEAR     57  51  80 CALM      30.10S
6HR MIN TEMP:  57; 6HR MAX TEMP:  70;


$$




USA.gov is the U.S. government's official web portal to all federal, state and local government web resources and services.